LOG708 LOWW-EGLL

Flight info

Callsign LOG708
Flight time N/A
Altitude FL360
Route BUWU1D BUWUT DITIS IPDUL OKG VELIS SWALM TIVUN BREDA ABNED L980 LOGAN LOGA2H
Aircraft B752/M-SDE3FHIM3RW/LB1

Departure

Time N/A
Airport Vienna International Airport (LOWW)

Arrival

Time 2026-04-30 18:38
Airport London Heathrow Airport (EGLL)
Time Latitude Longitude Altitude Speed Heading
2026-04-30 17:39 50.80559 8.69874 36408 ft 485 kts 288°
2026-04-30 17:42 50.89217 8.18343 36383 ft 486 kts 288°
2026-04-30 17:43 50.93724 7.92622 36379 ft 485 kts 290°
2026-04-30 17:44 51.00245 7.62304 36370 ft 485 kts 291°
2026-04-30 17:47 51.10053 7.16706 36357 ft 486 kts 290°
2026-04-30 17:48 51.17520 6.81040 36352 ft 487 kts 290°
2026-04-30 17:50 51.25922 6.40057 36351 ft 487 kts 289°
2026-04-30 17:52 51.31795 6.08991 36343 ft 488 kts 287°
2026-04-30 17:54 51.40337 5.62407 36324 ft 488 kts 287°
2026-04-30 17:56 51.48680 5.20863 36321 ft 488 kts 289°
2026-04-30 17:58 51.54983 4.89870 36322 ft 488 kts 287°
2026-04-30 18:00 51.62668 4.48148 36310 ft 488 kts 286°
2026-04-30 18:01 51.67282 4.21941 36299 ft 487 kts 285°
2026-04-30 18:02 51.72706 3.90469 36296 ft 486 kts 285°
2026-04-30 18:04 51.78035 3.58932 36291 ft 487 kts 284°
2026-04-30 18:06 51.84598 3.16617 36289 ft 486 kts 275°
2026-04-30 18:07 51.84038 2.94949 36285 ft 483 kts 262°
2026-04-30 18:08 51.82636 2.78864 36276 ft 483 kts 260°
2026-04-30 18:09 51.80846 2.57099 34834 ft 496 kts 261°
2026-04-30 18:10 51.79391 2.35653 32634 ft 471 kts 262°
2026-04-30 18:11 51.78057 2.15108 30435 ft 452 kts 262°
2026-04-30 18:11 51.77163 2.00200 28786 ft 440 kts 262°
2026-04-30 18:12 51.76289 1.85660 27138 ft 430 kts 262°
2026-04-30 18:13 51.75705 1.76145 26038 ft 424 kts 262°
2026-04-30 18:13 51.74923 1.63663 24572 ft 416 kts 262°
2026-04-30 18:14 51.74244 1.52924 23290 ft 410 kts 262°
2026-04-30 18:15 51.73373 1.39379 21641 ft 401 kts 262°
2026-04-30 18:15 51.72507 1.26168 19993 ft 390 kts 261°
2026-04-30 18:16 51.71934 1.17570 18893 ft 383 kts 261°
2026-04-30 18:16 51.71363 1.09137 17795 ft 376 kts 261°
2026-04-30 18:17 51.71079 1.04976 17245 ft 372 kts 261°
2026-04-30 18:17 51.70796 1.00858 16696 ft 369 kts 261°
2026-04-30 18:17 51.70264 0.93126 15653 ft 364 kts 261°
2026-04-30 18:18 51.69985 0.89095 15103 ft 361 kts 261°
2026-04-30 18:18 51.69707 0.85104 14554 ft 358 kts 261°
2026-04-30 18:18 51.69429 0.81139 14005 ft 355 kts 261°
2026-04-30 18:18 51.69151 0.77201 13456 ft 353 kts 261°
2026-04-30 18:19 51.68875 0.73296 12906 ft 350 kts 261°
2026-04-30 18:19 51.68600 0.69424 12357 ft 348 kts 260°
2026-04-30 18:19 51.68326 0.65578 11808 ft 344 kts 260°
2026-04-30 18:19 51.68059 0.61821 11256 ft 331 kts 260°
2026-04-30 18:20 51.67803 0.58219 10704 ft 320 kts 260°
2026-04-30 18:20 51.67550 0.54713 10152 ft 312 kts 260°
2026-04-30 18:20 51.67301 0.51280 9604 ft 307 kts 259°
2026-04-30 18:20 51.67054 0.47896 9054 ft 302 kts 259°
2026-04-30 18:21 51.66810 0.44563 8506 ft 299 kts 259°
2026-04-30 18:21 51.66571 0.41302 8296 ft 288 kts 259°
2026-04-30 18:21 51.66336 0.38116 8247 ft 287 kts 259°
2026-04-30 18:21 51.66098 0.34931 8238 ft 287 kts 259°
2026-04-30 18:22 51.65858 0.31743 8235 ft 288 kts 259°
2026-04-30 18:22 51.65374 0.25345 8234 ft 289 kts 259°
2026-04-30 18:22 51.65132 0.22145 8231 ft 289 kts 259°
2026-04-30 18:23 51.64878 0.18941 8233 ft 289 kts 258°
2026-04-30 18:23 51.64616 0.15741 8234 ft 289 kts 258°
2026-04-30 18:23 51.64351 0.12544 8234 ft 289 kts 258°
2026-04-30 18:23 51.64087 0.09364 8234 ft 289 kts 258°
2026-04-30 18:24 51.63551 0.02936 8231 ft 289 kts 258°
2026-04-30 18:24 51.63285 -0.00248 8230 ft 289 kts 258°
2026-04-30 18:24 51.63012 -0.03450 8229 ft 288 kts 258°
2026-04-30 18:25 51.62732 -0.06624 8227 ft 286 kts 258°
2026-04-30 18:25 51.62157 -0.13008 7524 ft 288 kts 258°
2026-04-30 18:25 51.61881 -0.16130 7305 ft 275 kts 258°
2026-04-30 18:26 51.61356 -0.22175 7224 ft 273 kts 258°
2026-04-30 18:26 51.61094 -0.25197 7218 ft 273 kts 258°
2026-04-30 18:26 51.60831 -0.28221 7214 ft 274 kts 258°
2026-04-30 18:27 51.60301 -0.34294 7207 ft 275 kts 258°
2026-04-30 18:27 51.60035 -0.37332 7207 ft 275 kts 258°
2026-04-30 18:28 51.59502 -0.43410 7207 ft 275 kts 258°
2026-04-30 18:28 51.59235 -0.46446 7203 ft 275 kts 258°
2026-04-30 18:28 51.58692 -0.52582 6709 ft 282 kts 258°
2026-04-30 18:29 51.58425 -0.55639 6184 ft 272 kts 258°
2026-04-30 18:29 51.57703 -0.64322 4531 ft 255 kts 258°
2026-04-30 18:30 51.57322 -0.68986 3616 ft 252 kts 258°
2026-04-30 18:30 51.56798 -0.75331 3001 ft 241 kts 258°
2026-04-30 18:31 51.56577 -0.77990 2984 ft 241 kts 258°
2026-04-30 18:31 51.55482 -0.82820 2968 ft 223 kts 226°
2026-04-30 18:32 51.52719 -0.84394 3027 ft 216 kts 182°
2026-04-30 18:32 51.51265 -0.84513 2978 ft 202 kts 178°
2026-04-30 18:32 51.48599 -0.84336 2906 ft 185 kts 160°
2026-04-30 18:33 51.47655 -0.82958 2973 ft 192 kts 131°
2026-04-30 18:33 51.47486 -0.78671 3025 ft 200 kts 85°
2026-04-30 18:33 51.47726 -0.76550 2977 ft 187 kts 86°
2026-04-30 18:34 51.47799 -0.74524 2981 ft 179 kts 92°
2026-04-30 18:34 51.47724 -0.70585 2766 ft 174 kts 96°
2026-04-30 18:34 51.47706 -0.68749 2493 ft 158 kts 95°
2026-04-30 18:35 51.47699 -0.67031 2342 ft 150 kts 94°
2026-04-30 18:35 51.47692 -0.65359 2161 ft 152 kts 94°
2026-04-30 18:35 51.47689 -0.63685 1948 ft 150 kts 93°
2026-04-30 18:36 51.47694 -0.60351 1548 ft 149 kts 92°
2026-04-30 18:36 51.47693 -0.58695 1352 ft 144 kts 91°
2026-04-30 18:36 51.47692 -0.55571 971 ft 137 kts 89°
2026-04-30 18:37 51.47716 -0.54062 789 ft 135 kts 88°
2026-04-30 18:37 51.47724 -0.52563 612 ft 133 kts 89°
2026-04-30 18:37 51.47734 -0.51085 436 ft 132 kts 89°
2026-04-30 18:37 51.47746 -0.49617 264 ft 132 kts 89°
2026-04-30 18:38 51.47752 -0.48181 106 ft 121 kts 89°
2026-04-30 18:38 51.47753 -0.47080 92 ft 60 kts 89°
2026-04-30 18:38 51.47757 -0.46517 92 ft 47 kts 89°
2026-04-30 18:38 51.47755 -0.46277 92 ft 15 kts 94°
2026-04-30 18:39 51.47680 -0.46117 92 ft 19 kts 140°
2026-04-30 18:39 51.47648 -0.46074 92 ft 0 kts 140°
2026-04-30 18:39 51.47625 -0.46063 92 ft 16 kts 166°
2026-04-30 18:39 51.47526 -0.46000 92 ft 16 kts 115°
2026-04-30 18:40 51.47528 -0.45730 92 ft 30 kts 89°
2026-04-30 18:40 51.47529 -0.45444 92 ft 22 kts 90°
2026-04-30 18:40 51.47530 -0.45213 92 ft 20 kts 91°
2026-04-30 18:40 51.47528 -0.44997 92 ft 23 kts 90°
2026-04-30 18:41 51.47530 -0.44762 92 ft 18 kts 90°
2026-04-30 18:41 51.47481 -0.44582 92 ft 17 kts 151°
2026-04-30 18:41 51.47336 -0.44556 92 ft 21 kts 181°
2026-04-30 18:41 51.47194 -0.44558 92 ft 20 kts 179°
2026-04-30 18:42 51.47063 -0.44557 92 ft 19 kts 180°
2026-04-30 18:42 51.46939 -0.44635 92 ft 10 kts 271°
2026-04-30 18:42 51.46938 -0.44685 92 ft 2 kts 268°